User: anonymous
Location: Unspecified
(0.0000°N, 0.0000°E)
Time: 10:20:04
(UTC+02:00)
Language:

CZ-4B DEB - Orbit

View from above orbital plane
View from above orbital plane
View from above satellite
View from above satellite

Ground track
Ground track

The orbit data is extracted from the following two-line orbital elements,

1 33411U 08053D   14265.47794079  .00013625  00000-0  77518-3 0  2882
2 33411 097.5106 283.3184 0008149 284.9600 075.0729 15.12946921322997
Epoch (UTC): 22 September 2014 11:28:14
Eccentricity: 0.0008149
inclination: 97.5106°
perigee height: 521 km
apogee height: 533 km
right ascension of ascending node: 283.3184°
argument of perigee: 284.9600°
revolutions per day: 15.12946921
mean anomaly at epoch: 75.0729°
orbit number at epoch: 32299

The dashed part of the orbit path shows where the satellite is in the earth's shadow,  

DLR